Caldwell, ID

9:32 PM MST on February 21, 2018 (GMT -0700)
Caldwell Industrial

Weather History for KEUL - May, 2013

Change the Weather History Date:

Thursday, May 2, 2013

  Actual Average (KBOI) Record (KBOI)
Temperature  
Mean Temperature 50 °F -  
Max Temperature 71 °F 69 °F 91 °F (1947)
Min Temperature 30 °F 42 °F 23 °F (1988)
Degree Days  
Heating Degree Days 14    
Moisture  
Dew Point 20 °F    
Average Humidity 33    
Maximum Humidity 64    
Minimum Humidity 13    
Precipitation  
Precipitation 0.00 in - - ()
Sea Level Pressure  
Sea Level Pressure 30.47 in    
Wind  
Wind Speed 6 mph (SE)    
Max Wind Speed 14 mph    
Max Gust Speed 22 mph    
Visibility 10 miles    
Events      
Averages and records for this station are not official NWS values.
T = Trace of Precipitation, MM = Missing Value Source: NWS Daily Summary

Daily Weather History Graph

Daily Weather History Graph

Search for Another Location

Airport or City:

Trip Planner

Search our weather history database for the weather conditions in past years. The results will help you decide how hot, cold, wet, or windy it might be!

Date:

Astronomy

May. 02, 2013 Rise Set
Actual Time 6:37 AM MDT 8:50 PM MDT
Civil Twilight 6:05 AM MDT 9:22 PM MDT
Nautical Twilight 5:26 AM MDT 10:01 PM MDT
Astronomical Twilight 4:43 AM MDT 10:45 PM MDT
Moon 2:41 AM MDT (5/2) 1:31 PM MDT (5/2)
Length of Visible Light 15h 16m
Length of Day
14h 13m
Waning Gibbous, 47% of the Moon is Illuminated
May 2
Waning Gibbous
May 9
New
May 17
First Quarter
May 24
Full
May 31
Last Quarter

Hourly Weather History & Observations

Time (MDT) Temp. Windchill Dew Point Humidity Pressure Visibility Wind Dir Wind Speed Gust Speed Precip Events Conditions
12:15 AM 42.8 °F 41.1 °F 19.4 °F 39% 30.56 in 10.0 mi East 3.5 mph - N/A   Clear
12:55 AM 39.2 °F 35.9 °F 19.4 °F 45% 30.57 in 10.0 mi South 4.6 mph - N/A   Clear
1:15 AM 39.2 °F 35.9 °F 19.4 °F 45% 30.57 in 10.0 mi South 4.6 mph - N/A   Clear
1:35 AM 39.2 °F - 19.4 °F 45% 30.57 in 10.0 mi Calm Calm - N/A   Clear
1:55 AM 39.2 °F 35.9 °F 19.4 °F 45% 30.56 in 10.0 mi WSW 4.6 mph - N/A   Clear
2:15 AM 35.6 °F 31.7 °F 19.4 °F 52% 30.57 in 10.0 mi ENE 4.6 mph - N/A   Clear
2:35 AM 39.2 °F 35.9 °F 19.4 °F 45% 30.57 in 10.0 mi East 4.6 mph - N/A   Clear
2:55 AM 33.8 °F 30.8 °F 19.4 °F 56% 30.57 in 10.0 mi SSE 3.5 mph - N/A   Clear
3:35 AM 35.6 °F - 19.4 °F 52% 30.57 in 10.0 mi Calm Calm - N/A   Clear
3:55 AM 35.6 °F - 19.4 °F 52% 30.57 in 10.0 mi Calm Calm - N/A   Clear
4:35 AM 33.8 °F - 19.4 °F 56% 30.58 in 10.0 mi Calm Calm - N/A   Clear
4:55 AM 32.0 °F 28.7 °F 19.4 °F 60% 30.58 in 10.0 mi SE 3.5 mph - N/A   Clear
5:35 AM 30.2 °F 26.7 °F 19.4 °F 64% 30.58 in 10.0 mi ESE 3.5 mph - N/A   Clear
5:55 AM 30.2 °F 26.7 °F 17.6 °F 60% 30.58 in 10.0 mi SE 3.5 mph - N/A   Clear
6:15 AM 30.2 °F 25.4 °F 17.6 °F 60% 30.58 in 10.0 mi East 4.6 mph - N/A   Clear
6:35 AM 30.2 °F 24.3 °F 17.6 °F 60% 30.58 in 10.0 mi SE 5.8 mph - N/A   Clear
6:55 AM 30.2 °F 23.4 °F 17.6 °F 60% 30.59 in 10.0 mi SE 6.9 mph - N/A   Clear
7:15 AM 33.8 °F 27.0 °F 19.4 °F 56% 30.60 in 10.0 mi SSE 8.1 mph - N/A   Clear
7:35 AM 37.4 °F 30.8 °F 19.4 °F 48% 30.60 in 10.0 mi SSE 9.2 mph - N/A   Clear
7:55 AM 42.8 °F 38.0 °F 19.4 °F 39% 30.60 in 10.0 mi South 8.1 mph - N/A   Clear
8:15 AM 44.6 °F 41.4 °F 19.4 °F 37% 30.60 in 10.0 mi SSE 5.8 mph - N/A   Clear
8:35 AM 44.6 °F 40.2 °F 19.4 °F 37% 30.61 in 10.0 mi SE 8.1 mph - N/A   Clear
8:55 AM 46.4 °F 42.9 °F 19.4 °F 34% 30.61 in 10.0 mi SSE 6.9 mph - N/A   Clear
9:15 AM 48.2 °F - 19.4 °F 32% 30.61 in 10.0 mi South 9.2 mph - N/A   Clear
9:35 AM 50.0 °F - 19.4 °F 30% 30.60 in 10.0 mi South 11.5 mph - N/A   Clear
9:55 AM 51.8 °F - 19.4 °F 28% 30.60 in 10.0 mi South 10.4 mph - N/A   Clear
10:15 AM 53.6 °F - 21.2 °F 28% 30.60 in 10.0 mi South 11.5 mph - N/A   Clear
10:35 AM 53.6 °F - 19.4 °F 26% 30.59 in 10.0 mi SSE 8.1 mph - N/A   Clear
10:55 AM 55.4 °F - 21.2 °F 26% 30.58 in 10.0 mi SE 9.2 mph - N/A   Clear
12:35 PM 62.6 °F - 21.2 °F 20% 30.54 in 10.0 mi SW 5.8 mph - N/A   Clear
12:55 PM 62.6 °F - 21.2 °F 20% 30.54 in 10.0 mi South 4.6 mph - N/A   Clear
1:15 PM 62.6 °F - 21.2 °F 20% 30.53 in 10.0 mi ESE 9.2 mph - N/A   Clear
1:35 PM 64.4 °F - 21.2 °F 19% 30.51 in 10.0 mi SE 9.2 mph - N/A   Clear
1:55 PM 64.4 °F - 21.2 °F 19% 30.50 in 10.0 mi South 10.4 mph - N/A   Clear
2:15 PM 64.4 °F - 21.2 °F 19% 30.48 in 10.0 mi South 10.4 mph - N/A   Clear
2:35 PM 66.2 °F - 21.2 °F 18% 30.47 in 10.0 mi SE 12.7 mph 19.6 mph N/A   Clear
2:55 PM 66.2 °F - 19.4 °F 17% 30.46 in 10.0 mi SSE 13.8 mph 17.3 mph N/A   Clear
3:55 PM 69.8 °F - 17.6 °F 14% 30.42 in 10.0 mi SSE 12.7 mph 16.1 mph N/A   Clear
4:15 PM 69.8 °F - 17.6 °F 14% 30.40 in 10.0 mi SE 13.8 mph 21.9 mph N/A   Clear
4:35 PM 69.8 °F - 15.8 °F 13% 30.38 in 10.0 mi SE 9.2 mph - N/A   Clear
4:55 PM 69.8 °F - 17.6 °F 14% 30.37 in 10.0 mi East 10.4 mph - N/A   Clear
5:15 PM 71.6 °F - 17.6 °F 13% 30.36 in 10.0 mi ESE 9.2 mph - N/A   Clear
5:35 PM 71.6 °F - 17.6 °F 13% 30.35 in 10.0 mi East 11.5 mph - N/A   Clear
5:55 PM 71.6 °F - 19.4 °F 14% 30.34 in 10.0 mi ESE 5.8 mph - N/A   Clear
6:15 PM 71.6 °F - 17.6 °F 13% 30.34 in 10.0 mi East 10.4 mph - N/A   Clear
6:35 PM 71.6 °F - 19.4 °F 14% 30.33 in 10.0 mi SE 8.1 mph - N/A   Clear
6:55 PM 69.8 °F - 17.6 °F 14% 30.32 in 10.0 mi SE 3.5 mph - N/A   Clear
7:15 PM 69.8 °F - 24.8 °F 18% 30.31 in 10.0 mi East 5.8 mph - N/A   Clear
7:35 PM 68.0 °F - 24.8 °F 20% 30.30 in 10.0 mi East 6.9 mph - N/A   Clear
7:55 PM 66.2 °F - 28.4 °F 24% 30.30 in 10.0 mi ENE 5.8 mph - N/A   Clear
8:15 PM 64.4 °F - 30.2 °F 28% 30.30 in 10.0 mi East 3.5 mph - N/A   Clear
8:35 PM 62.6 °F - 28.4 °F 27% 30.29 in 10.0 mi NE 5.8 mph - N/A   Clear
9:15 PM 60.8 °F - 23.0 °F 23% 30.29 in 10.0 mi North 4.6 mph - N/A   Clear
9:35 PM 57.2 °F - 21.2 °F 25% 30.29 in 10.0 mi North 5.8 mph - N/A   Clear
9:55 PM 53.6 °F - 24.8 °F 33% 30.28 in 10.0 mi North 5.8 mph - N/A   Clear
10:15 PM 53.6 °F - 23.0 °F 30% 30.28 in 10.0 mi NNE 5.8 mph - N/A   Clear
10:35 PM 50.0 °F - 24.8 °F 37% 30.28 in 9.0 mi NNE 3.5 mph - N/A   Clear
10:55 PM 50.0 °F - 24.8 °F 37% 30.28 in 10.0 mi Calm Calm - N/A   Clear
11:15 PM 51.8 °F - 23.0 °F 33% 30.28 in 10.0 mi Calm Calm - N/A   Clear
11:35 PM 53.6 °F - 21.2 °F 28% 30.27 in 10.0 mi SSW 4.6 mph - N/A   Clear
11:55 PM 51.8 °F - 21.2 °F 30% 30.27 in 10.0 mi SSW 3.5 mph - N/A   Clear